| time (UTC) | temp F | wind direction | speed MPH | gust MPH | rain 1hr in | rain 24hr in | rain mn in | humidity % | barometer mb |
| 20260509222343 | 78 | 269 | 3.0 | 7.0 | 0.00 | 0.00 | 0.00 | 12 | 1017.2 |
| 20260509221838 | 79 | 32 | 10.0 | 15.0 | 0.00 | 0.00 | 0.00 | 12 | 1017.2 |
| 20260509221336 | 78 | 28 | 7.0 | 10.0 | 0.00 | 0.00 | 0.00 | 12 | 1016.8 |
| 20260509220831 | 79 | 286 | 6.0 | 10.0 | 0.00 | 0.00 | 0.00 | 12 | 1017.2 |
| 20260509220327 | 78 | 244 | 7.0 | 9.0 | 0.00 | 0.00 | 0.00 | 12 | 1017.0 |
| 20260509215823 | 79 | 279 | 7.0 | 12.0 | 0.00 | 0.00 | 0.00 | 12 | 1017.4 |
| 20260509215320 | 80 | 222 | 3.0 | 5.0 | 0.00 | 0.00 | 0.00 | 12 | 1017.0 |
| 20260509214817 | 78 | 228 | 7.0 | 10.0 | 0.00 | 0.00 | 0.00 | 12 | 1017.4 |
| 20260509214314 | 79 | 246 | 7.0 | 12.0 | 0.00 | 0.00 | 0.00 | 12 | 1017.3 |
| 20260509213811 | 79 | 278 | 5.0 | 7.0 | 0.00 | 0.00 | 0.00 | 12 | 1017.5 |
| 20260509213306 | 79 | 271 | 9.0 | 15.0 | 0.00 | 0.00 | 0.00 | 12 | 1017.5 |
| 20260509212804 | 78 | 245 | 11.0 | 15.0 | 0.00 | 0.00 | 0.00 | 12 | 1017.5 |
| 20260509212305 | 78 | 3 | 3.0 | 5.0 | 0.00 | 0.00 | 0.00 | 13 | 1017.8 |
| 20260509211756 | 76 | 224 | 7.0 | 10.0 | 0.00 | 0.00 | 0.00 | 14 | 1017.5 |
| 20260509211253 | 75 | 266 | 5.0 | 7.0 | 0.00 | 0.00 | 0.00 | 14 | 1017.8 |
| 20260509210750 | 76 | 358 | 5.0 | 7.0 | 0.00 | 0.00 | 0.00 | 14 | 1017.8 |
| 20260509210248 | 78 | 213 | 7.0 | 10.0 | 0.00 | 0.00 | 0.00 | 13 | 1017.9 |
| 20260509205747 | 78 | 264 | 11.0 | 19.0 | 0.00 | 0.00 | 0.00 | 13 | 1017.9 |
| 20260509205242 | 79 | 273 | 8.0 | 14.0 | 0.00 | 0.00 | 0.00 | 14 | 1018.2 |
| 20260509204738 | 77 | 191 | 6.0 | 7.0 | 0.00 | 0.00 | 0.00 | 14 | 1018.0 |
| 20260509204235 | 78 | 236 | 14.0 | 27.0 | 0.00 | 0.00 | 0.00 | 15 | 1018.3 |
| 20260509203731 | 77 | 292 | 14.0 | 17.0 | 0.00 | 0.00 | 0.00 | 15 | 1018.2 |
| 20260509203229 | 77 | 243 | 10.0 | 12.0 | 0.00 | 0.00 | 0.00 | 15 | 1018.2 |
| 20260509202725 | 77 | 240 | 10.0 | 14.0 | 0.00 | 0.00 | 0.00 | 15 | 1018.5 |
| 20260509202221 | 77 | 213 | 5.0 | 7.0 | 0.00 | 0.00 | 0.00 | 16 | 1018.7 |
| 20260509201715 | 77 | 249 | 8.0 | 12.0 | 0.00 | 0.00 | 0.00 | 16 | 1018.8 |
| 20260509201212 | 77 | 343 | 6.0 | 9.0 | 0.00 | 0.00 | 0.00 | 15 | 1018.8 |
| 20260509200709 | 76 | 306 | 6.0 | 7.0 | 0.00 | 0.00 | 0.00 | 16 | 1019.0 |
| 20260509200203 | 75 | 243 | 7.0 | 10.0 | 0.00 | 0.00 | 0.00 | 17 | 1018.9 |
| 20260509195659 | 74 | 270 | 3.0 | 3.0 | 0.00 | 0.00 | 0.00 | 17 | 1019.2 |
| 20260509195155 | 77 | 254 | 7.0 | 9.0 | 0.00 | 0.00 | 0.00 | 16 | 1019.3 |
| 20260509194649 | 76 | 263 | 9.0 | 12.0 | 0.00 | 0.00 | 0.00 | 16 | 1019.3 |
| 20260509194146 | 78 | 253 | 9.0 | 14.0 | 0.00 | 0.00 | 0.00 | 15 | 1019.3 |
| 20260509193642 | 77 | 239 | 5.0 | 10.0 | 0.00 | 0.00 | 0.00 | 16 | 1019.0 |
| 20260509193138 | 77 | 290 | 5.0 | 7.0 | 0.00 | 0.00 | 0.00 | 16 | 1019.3 |
| 20260509192635 | 76 | 224 | 4.0 | 5.0 | 0.00 | 0.00 | 0.00 | 16 | 1019.2 |
| 20260509192129 | 77 | 328 | 5.0 | 9.0 | 0.00 | 0.00 | 0.00 | 15 | 1019.7 |
| 20260509191624 | 76 | 293 | 4.0 | 7.0 | 0.00 | 0.00 | 0.00 | 15 | 1019.4 |
| 20260509191121 | 75 | 291 | 7.0 | 10.0 | 0.00 | 0.00 | 0.00 | 16 | 1019.5 |
| 20260509190617 | 77 | 254 | 8.0 | 10.0 | 0.00 | 0.00 | 0.00 | 16 | 1019.7 |
| 20260509190115 | 77 | 205 | 7.0 | 12.0 | 0.00 | 0.00 | 0.00 | 16 | 1019.5 |
| 20260509185612 | 77 | 223 | 4.0 | 7.0 | 0.00 | 0.00 | 0.00 | 15 | 1019.4 |
| 20260509185108 | 76 | 225 | 4.0 | 5.0 | 0.00 | 0.00 | 0.00 | 15 | 1019.9 |
| 20260509184606 | 76 | 245 | 7.0 | 9.0 | 0.00 | 0.00 | 0.00 | 15 | 1019.5 |
| 20260509184103 | 75 | 272 | 5.0 | 9.0 | 0.00 | 0.00 | 0.00 | 15 | 1019.4 |
| 20260509183558 | 76 | 248 | 10.0 | 12.0 | 0.00 | 0.00 | 0.00 | 15 | 1019.9 |
| 20260509183054 | 75 | 245 | 8.0 | 10.0 | 0.00 | 0.00 | 0.00 | 16 | 1019.8 |
| 20260509182551 | 76 | 271 | 2.0 | 5.0 | 0.00 | 0.00 | 0.00 | 15 | 1019.8 |
| 20260509182048 | 75 | 291 | 7.0 | 9.0 | 0.00 | 0.00 | 0.00 | 15 | 1020.2 |
| 20260509181546 | 76 | 226 | 7.0 | 10.0 | 0.00 | 0.00 | 0.00 | 15 | 1019.9 |
| 20260509181043 | 75 | 263 | 7.0 | 12.0 | 0.00 | 0.00 | 0.00 | 15 | 1020.0 |
| 20260509180538 | 76 | 286 | 10.0 | 15.0 | 0.00 | 0.00 | 0.00 | 15 | 1020.2 |
| 20260509180036 | 77 | 280 | 7.0 | 10.0 | 0.00 | 0.00 | 0.00 | 16 | 1020.0 |
| 20260509175531 | 75 | 179 | 9.0 | 10.0 | 0.00 | 0.00 | 0.00 | 16 | 1020.0 |
| 20260509175029 | 76 | 252 | 5.0 | 9.0 | 0.00 | 0.00 | 0.00 | 16 | 1019.9 |
| 20260509174526 | 75 | 262 | 8.0 | 10.0 | 0.00 | 0.00 | 0.00 | 16 | 1020.2 |
| 20260509174020 | 75 | 254 | 7.0 | 9.0 | 0.00 | 0.00 | 0.00 | 17 | 1020.2 |
| 20260509173515 | 74 | 253 | 11.0 | 14.0 | 0.00 | 0.00 | 0.00 | 16 | 1020.4 |
| 20260509173011 | 74 | 267 | 10.0 | 14.0 | 0.00 | 0.00 | 0.00 | 16 | 1020.3 |
| 20260509172508 | 75 | 298 | 7.0 | 12.0 | 0.00 | 0.00 | 0.00 | 17 | 1020.3 |
| 20260509172004 | 73 | 260 | 5.0 | 7.0 | 0.00 | 0.00 | 0.00 | 17 | 1020.2 |
| 20260509171500 | 75 | 232 | 6.0 | 9.0 | 0.00 | 0.00 | 0.00 | 17 | 1020.3 |
| 20260509170957 | 74 | 245 | 10.0 | 15.0 | 0.00 | 0.00 | 0.00 | 18 | 1020.3 |
| 20260509170452 | 75 | 165 | 4.0 | 5.0 | 0.00 | 0.00 | 0.00 | 17 | 1019.9 |
| 20260509165948 | 75 | 310 | 6.0 | 7.0 | 0.00 | 0.00 | 0.00 | 19 | 1020.2 |
| 20260509165447 | 73 | 254 | 5.0 | 7.0 | 0.00 | 0.00 | 0.00 | 19 | 1020.2 |
| 20260509164943 | 73 | 270 | 7.0 | 10.0 | 0.00 | 0.00 | 0.00 | 19 | 1020.2 |
| 20260509164439 | 71 | 285 | 5.0 | 9.0 | 0.00 | 0.00 | 0.00 | 20 | 1020.2 |
| 20260509163935 | 73 | 293 | 6.0 | 7.0 | 0.00 | 0.00 | 0.00 | 20 | 1019.9 |
| 20260509163433 | 73 | 221 | 7.0 | 7.0 | 0.00 | 0.00 | 0.00 | 19 | 1020.3 |
| 20260509162932 | 72 | 240 | 9.0 | 12.0 | 0.00 | 0.00 | 0.00 | 20 | 1020.2 |
| 20260509162431 | 72 | 253 | 9.0 | 10.0 | 0.00 | 0.00 | 0.00 | 20 | 1020.0 |
| 20260509161926 | 72 | 225 | 7.0 | 7.0 | 0.00 | 0.00 | 0.00 | 20 | 1020.2 |
| 20260509161423 | 71 | 270 | 6.0 | 7.0 | 0.00 | 0.00 | 0.00 | 21 | 1020.2 |
| 20260509160918 | 71 | 246 | 8.0 | 15.0 | 0.00 | 0.00 | 0.00 | 21 | 1020.0 |
| 20260509160414 | 70 | 277 | 5.0 | 7.0 | 0.00 | 0.00 | 0.00 | 21 | 1020.3 |
| 20260509155909 | 70 | 242 | 7.0 | 9.0 | 0.00 | 0.00 | 0.00 | 21 | 1020.3 |
| 20260509155407 | 70 | 277 | 6.0 | 9.0 | 0.00 | 0.00 | 0.00 | 21 | 1020.4 |
| 20260509154903 | 69 | 228 | 5.0 | 7.0 | 0.00 | 0.00 | 0.00 | 22 | 1020.4 |
| 20260509154359 | 70 | 238 | 7.0 | 10.0 | 0.00 | 0.00 | 0.00 | 21 | 1020.3 |
| 20260509153856 | 71 | 279 | 7.0 | 10.0 | 0.00 | 0.00 | 0.00 | 21 | 1020.0 |
| 20260509153354 | 70 | 240 | 4.0 | 5.0 | 0.00 | 0.00 | 0.00 | 21 | 1020.0 |
| 20260509152850 | 69 | 272 | 5.0 | 7.0 | 0.00 | 0.00 | 0.00 | 22 | 1020.2 |
| 20260509152346 | 69 | 260 | 5.0 | 7.0 | 0.00 | 0.00 | 0.00 | 22 | 1020.3 |
| 20260509151844 | 68 | 268 | 8.0 | 14.0 | 0.00 | 0.00 | 0.00 | 22 | 1020.0 |
| 20260509151339 | 69 | 323 | 6.0 | 9.0 | 0.00 | 0.00 | 0.00 | 22 | 1020.2 |
| 20260509150838 | 68 | 273 | 5.0 | 7.0 | 0.00 | 0.00 | 0.00 | 22 | 1020.0 |
| 20260509150335 | 69 | 290 | 7.0 | 10.0 | 0.00 | 0.00 | 0.00 | 22 | 1019.8 |
| 20260509145833 | 69 | 245 | 4.0 | 5.0 | 0.00 | 0.00 | 0.00 | 22 | 1020.2 |
| 20260509145327 | 69 | 303 | 4.0 | 7.0 | 0.00 | 0.00 | 0.00 | 22 | 1020.2 |
| 20260509144824 | 69 | 343 | 3.0 | 5.0 | 0.00 | 0.00 | 0.00 | 22 | 1020.0 |
| 20260509144321 | 69 | 256 | 4.0 | 5.0 | 0.00 | 0.00 | 0.00 | 22 | 1019.9 |
| 20260509143818 | 68 | 257 | 5.0 | 7.0 | 0.00 | 0.00 | 0.00 | 22 | 1020.2 |
| 20260509143315 | 68 | 274 | 9.0 | 12.0 | 0.00 | 0.00 | 0.00 | 22 | 1020.0 |
| 20260509142811 | 67 | 235 | 5.0 | 7.0 | 0.00 | 0.00 | 0.00 | 23 | 1019.9 |
| 20260509142308 | 67 | 287 | 8.0 | 10.0 | 0.00 | 0.00 | 0.00 | 22 | 1019.7 |
| 20260509141803 | 66 | 240 | 3.0 | 3.0 | 0.00 | 0.00 | 0.00 | 23 | 1019.9 |
| 20260509141300 | 66 | 205 | 6.0 | 9.0 | 0.00 | 0.00 | 0.00 | 23 | 1019.8 |
| 20260509140757 | 66 | 261 | 3.0 | 3.0 | 0.00 | 0.00 | 0.00 | 24 | 1019.9 |
| 20260509140254 | 65 | 264 | 4.0 | 7.0 | 0.00 | 0.00 | 0.00 | 24 | 1019.7 |
| 20260509135752 | 64 | 234 | 5.0 | 5.0 | 0.00 | 0.00 | 0.00 | 24 | 1019.7 |
| 20260509135249 | 63 | 275 | 5.0 | 7.0 | 0.00 | 0.00 | 0.00 | 24 | 1019.7 |
| 20260509134746 | 62 | 306 | 7.0 | 9.0 | 0.00 | 0.00 | 0.00 | 25 | 1019.9 |
| 20260509134244 | 62 | 268 | 8.0 | 10.0 | 0.00 | 0.00 | 0.00 | 24 | 1019.8 |
| 20260509133740 | 61 | 268 | 5.0 | 5.0 | 0.00 | 0.00 | 0.00 | 25 | 1019.4 |
| 20260509133237 | 60 | 268 | 7.0 | 9.0 | 0.00 | 0.00 | 0.00 | 25 | 1019.5 |
| 20260509132736 | 60 | 248 | 8.0 | 10.0 | 0.00 | 0.00 | 0.00 | 25 | 1019.8 |
| 20260509132234 | 59 | 239 | 9.0 | 14.0 | 0.00 | 0.00 | 0.00 | 26 | 1019.8 |
| 20260509131730 | 59 | 208 | 7.0 | 10.0 | 0.00 | 0.00 | 0.00 | 26 | 1019.8 |
| 20260509131227 | 58 | 252 | 6.0 | 7.0 | 0.00 | 0.00 | 0.00 | 26 | 1019.5 |
| 20260509130723 | 58 | 259 | 5.0 | 5.0 | 0.00 | 0.00 | 0.00 | 26 | 1019.5 |
| 20260509130219 | 58 | 227 | 5.0 | 5.0 | 0.00 | 0.00 | 0.00 | 26 | 1019.7 |
| 20260509125716 | 58 | 289 | 6.0 | 7.0 | 0.00 | 0.00 | 0.00 | 26 | 1019.8 |
| 20260509125213 | 57 | 241 | 3.0 | 3.0 | 0.00 | 0.00 | 0.00 | 26 | 1019.3 |
| 20260509124709 | 57 | 243 | 3.0 | 5.0 | 0.00 | 0.00 | 0.00 | 26 | 1019.5 |
| 20260509124206 | 57 | 235 | 4.0 | 5.0 | 0.00 | 0.00 | 0.00 | 26 | 1019.4 |
| 20260509123704 | 57 | 251 | 4.0 | 5.0 | 0.00 | 0.00 | 0.00 | 26 | 1019.3 |
| 20260509123201 | 57 | 247 | 3.0 | 3.0 | 0.00 | 0.00 | 0.00 | 27 | 1019.2 |
| 20260509122656 | 57 | 222 | 5.0 | 5.0 | 0.00 | 0.00 | 0.00 | 26 | 1019.0 |
| 20260509122154 | 57 | 280 | 4.0 | 5.0 | 0.00 | 0.00 | 0.00 | 26 | 1018.8 |
| 20260509121650 | 57 | 252 | 3.0 | 5.0 | 0.00 | 0.00 | 0.00 | 27 | 1018.9 |
| 20260509121148 | 57 | 254 | 3.0 | 3.0 | 0.00 | 0.00 | 0.00 | 27 | 1019.0 |
| 20260509120646 | 57 | 269 | 2.0 | 2.0 | 0.00 | 0.00 | 0.00 | 27 | 1018.9 |
| 20260509120144 | 58 | 253 | 2.0 | 3.0 | 0.00 | 0.00 | 0.00 | 26 | 1018.9 |
| 20260509115641 | 58 | 256 | 3.0 | 3.0 | 0.00 | 0.00 | 0.00 | 27 | 1018.9 |
| 20260509115138 | 57 | 255 | 3.0 | 3.0 | 0.00 | 0.00 | 0.00 | 27 | 1018.8 |
| 20260509114636 | 58 | 265 | 2.0 | 3.0 | 0.00 | 0.00 | 0.00 | 27 | 1018.9 |
| 20260509114135 | 58 | 259 | 2.0 | 2.0 | 0.00 | 0.00 | 0.00 | 27 | 1018.7 |
| 20260509113633 | 58 | 250 | 3.0 | 5.0 | 0.00 | 0.00 | 0.00 | 27 | 1018.5 |
| 20260509113130 | 58 | 255 | 3.0 | 3.0 | 0.00 | 0.00 | 0.00 | 27 | 1018.7 |
| 20260509112627 | 58 | 241 | 3.0 | 3.0 | 0.00 | 0.00 | 0.00 | 26 | 1018.5 |
| 20260509112124 | 58 | 250 | 3.0 | 3.0 | 0.00 | 0.00 | 0.00 | 26 | 1018.5 |
| 20260509111621 | 58 | 249 | 4.0 | 5.0 | 0.00 | 0.00 | 0.00 | 26 | 1018.4 |
| 20260509111117 | 58 | 262 | 2.0 | 3.0 | 0.00 | 0.00 | 0.00 | 26 | 1018.4 |
| 20260509110615 | 58 | 274 | 4.0 | 5.0 | 0.00 | 0.00 | 0.00 | 27 | 1018.4 |
| 20260509110112 | 58 | 253 | 4.0 | 5.0 | 0.00 | 0.00 | 0.00 | 27 | 1018.5 |
| 20260509105610 | 57 | 244 | 2.0 | 3.0 | 0.00 | 0.00 | 0.00 | 27 | 1018.4 |
| 20260509105107 | 57 | 267 | 5.0 | 5.0 | 0.00 | 0.00 | 0.00 | 27 | 1018.4 |
| 20260509104604 | 57 | 252 | 4.0 | 5.0 | 0.00 | 0.00 | 0.00 | 27 | 1018.5 |
| 20260509104101 | 58 | 264 | 5.0 | 5.0 | 0.00 | 0.00 | 0.00 | 26 | 1018.3 |
| 20260509103559 | 57 | 244 | 3.0 | 3.0 | 0.00 | 0.00 | 0.00 | 27 | 1018.4 |
| 20260509103057 | 57 | 255 | 4.0 | 5.0 | 0.00 | 0.00 | 0.00 | 27 | 1018.7 |
| 20260509102554 | 57 | 232 | 5.0 | 7.0 | 0.00 | 0.00 | 0.00 | 26 | 1018.4 |
| 20260509102050 | 57 | 277 | 3.0 | 3.0 | 0.00 | 0.00 | 0.00 | 26 | 1018.4 |
| 20260509101547 | 57 | 303 | 4.0 | 5.0 | 0.00 | 0.00 | 0.00 | 26 | 1018.5 |
| 20260509101044 | 57 | 267 | 4.0 | 5.0 | 0.00 | 0.00 | 0.00 | 26 | 1018.5 |
| 20260509100541 | 58 | 248 | 3.0 | 5.0 | 0.00 | 0.00 | 0.00 | 26 | 1018.3 |
| 20260509100038 | 57 | 244 | 4.0 | 5.0 | 0.00 | 0.00 | 0.00 | 26 | 1018.4 |
| 20260509095534 | 58 | 261 | 4.0 | 5.0 | 0.00 | 0.00 | 0.00 | 26 | 1018.7 |
| 20260509095032 | 58 | 264 | 3.0 | 5.0 | 0.00 | 0.00 | 0.00 | 26 | 1018.7 |
| 20260509094528 | 58 | 270 | 5.0 | 7.0 | 0.00 | 0.00 | 0.00 | 26 | 1018.4 |
| 20260509094026 | 58 | 265 | 3.0 | 5.0 | 0.00 | 0.00 | 0.00 | 26 | 1018.7 |
| 20260509093524 | 58 | 234 | 4.0 | 7.0 | 0.00 | 0.00 | 0.00 | 26 | 1018.7 |
| 20260509093021 | 58 | 245 | 5.0 | 7.0 | 0.00 | 0.00 | 0.00 | 26 | 1018.5 |
| 20260509092519 | 57 | 223 | 5.0 | 7.0 | 0.00 | 0.00 | 0.00 | 26 | 1018.4 |
| 20260509092017 | 57 | 236 | 6.0 | 9.0 | 0.00 | 0.00 | 0.00 | 26 | 1018.3 |
| 20260509091514 | 57 | 263 | 5.0 | 5.0 | 0.00 | 0.00 | 0.00 | 26 | 1018.5 |
| 20260509091011 | 57 | 251 | 6.0 | 9.0 | 0.00 | 0.00 | 0.00 | 26 | 1018.5 |
| 20260509090508 | 57 | 255 | 6.0 | 9.0 | 0.00 | 0.00 | 0.00 | 26 | 1018.4 |
| 20260509090006 | 57 | 253 | 5.0 | 7.0 | 0.00 | 0.00 | 0.00 | 26 | 1018.4 |
| 20260509085502 | 57 | 246 | 4.0 | 7.0 | 0.00 | 0.00 | 0.00 | 26 | 1018.5 |
| 20260509084959 | 57 | 259 | 6.0 | 9.0 | 0.00 | 0.00 | 0.00 | 26 | 1018.2 |
| 20260509084455 | 58 | 253 | 7.0 | 9.0 | 0.00 | 0.00 | 0.00 | 26 | 1018.2 |
| 20260509083953 | 58 | 236 | 5.0 | 9.0 | 0.00 | 0.00 | 0.00 | 26 | 1018.5 |
| 20260509083450 | 58 | 270 | 5.0 | 7.0 | 0.00 | 0.00 | 0.00 | 26 | 1018.4 |
| 20260509082946 | 58 | 242 | 5.0 | 7.0 | 0.00 | 0.00 | 0.00 | 26 | 1018.2 |
| 20260509082444 | 59 | 253 | 5.0 | 7.0 | 0.00 | 0.00 | 0.00 | 25 | 1018.4 |
| 20260509081941 | 59 | 250 | 5.0 | 7.0 | 0.00 | 0.00 | 0.00 | 26 | 1018.4 |
| 20260509081438 | 59 | 273 | 5.0 | 7.0 | 0.00 | 0.00 | 0.00 | 25 | 1018.5 |
| 20260509080935 | 59 | 279 | 4.0 | 5.0 | 0.00 | 0.00 | 0.00 | 25 | 1018.4 |
| 20260509080433 | 60 | 261 | 4.0 | 5.0 | 0.00 | 0.00 | 0.00 | 25 | 1018.5 |
| 20260509075931 | 60 | 244 | 4.0 | 5.0 | 0.00 | 0.00 | 0.00 | 25 | 1018.3 |
| 20260509075428 | 60 | 250 | 3.0 | 3.0 | 0.00 | 0.00 | 0.00 | 24 | 1018.4 |
| 20260509074926 | 60 | 245 | 3.0 | 3.0 | 0.00 | 0.00 | 0.00 | 25 | 1018.5 |
| 20260509074423 | 60 | 255 | 1.0 | 2.0 | 0.00 | 0.00 | 0.00 | 24 | 1018.7 |
| 20260509073919 | 60 | 241 | 3.0 | 3.0 | 0.00 | 0.00 | 0.00 | 24 | 1018.4 |
| 20260509073416 | 60 | 254 | 3.0 | 3.0 | 0.00 | 0.00 | 0.00 | 24 | 1018.5 |
| 20260509072912 | 60 | 236 | 3.0 | 3.0 | 0.00 | 0.00 | 0.00 | 24 | 1018.4 |
| 20260509072409 | 60 | 253 | 3.0 | 3.0 | 0.00 | 0.00 | 0.00 | 24 | 1018.7 |
| 20260509071905 | 59 | 250 | 2.0 | 2.0 | 0.00 | 0.00 | 0.00 | 25 | 1018.4 |
| 20260509071403 | 59 | 268 | 2.0 | 3.0 | 0.00 | 0.00 | 0.00 | 24 | 1018.5 |
| 20260509070900 | 59 | 247 | 2.0 | 3.0 | 0.00 | 0.00 | 0.00 | 25 | 1018.7 |
| 20260509070356 | 59 | 248 | 3.0 | 3.0 | 0.00 | 0.00 | 0.00 | 25 | 1018.8 |
| 20260509065852 | 59 | 258 | 3.0 | 3.0 | 0.00 | 0.00 | 0.00 | 24 | 1018.9 |
| 20260509065349 | 60 | 248 | 3.0 | 3.0 | 0.00 | 0.00 | 0.00 | 24 | 1018.9 |
| 20260509064845 | 60 | 263 | 2.0 | 3.0 | 0.00 | 0.00 | 0.00 | 24 | 1018.8 |
| 20260509064343 | 60 | 234 | 5.0 | 5.0 | 0.00 | 0.00 | 0.00 | 24 | 1018.7 |
| 20260509063840 | 60 | 241 | 3.0 | 3.0 | 0.00 | 0.00 | 0.00 | 24 | 1018.8 |
| 20260509063336 | 60 | 255 | 3.0 | 3.0 | 0.00 | 0.00 | 0.00 | 24 | 1018.5 |
| 20260509062833 | 60 | 244 | 3.0 | 3.0 | 0.00 | 0.00 | 0.00 | 24 | 1018.7 |
| 20260509062330 | 60 | 249 | 2.0 | 2.0 | 0.00 | 0.00 | 0.00 | 24 | 1019.0 |
| 20260509061827 | 60 | 232 | 3.0 | 5.0 | 0.00 | 0.00 | 0.00 | 24 | 1018.5 |
| 20260509061326 | 60 | 238 | 2.0 | 3.0 | 0.00 | 0.00 | 0.00 | 24 | 1018.8 |
| 20260509060822 | 60 | 251 | 3.0 | 3.0 | 0.00 | 0.00 | 0.00 | 24 | 1018.8 |
| 20260509060319 | 60 | 249 | 2.0 | 2.0 | 0.00 | 0.00 | 0.00 | 24 | 1019.0 |
| 20260509055815 | 61 | 251 | 5.0 | 5.0 | 0.00 | 0.00 | 0.00 | 23 | 1018.9 |
| 20260509055310 | 60 | 245 | 2.0 | 3.0 | 0.00 | 0.00 | 0.00 | 24 | 1019.0 |
| 20260509054808 | 61 | 245 | 2.0 | 2.0 | 0.00 | 0.00 | 0.00 | 23 | 1018.9 |
| 20260509054304 | 60 | 270 | 2.0 | 3.0 | 0.00 | 0.00 | 0.00 | 24 | 1018.8 |
| 20260509053803 | 60 | 255 | 2.0 | 3.0 | 0.00 | 0.00 | 0.00 | 24 | 1018.9 |
| 20260509053259 | 60 | 247 | 3.0 | 5.0 | 0.00 | 0.00 | 0.00 | 24 | 1019.0 |
| 20260509052757 | 60 | 244 | 3.0 | 3.0 | 0.00 | 0.00 | 0.00 | 24 | 1018.9 |
| 20260509052255 | 60 | 264 | 5.0 | 7.0 | 0.00 | 0.00 | 0.00 | 24 | 1018.8 |
| 20260509051752 | 61 | 249 | 2.0 | 2.0 | 0.00 | 0.00 | 0.00 | 24 | 1018.9 |
| 20260509051250 | 60 | 276 | 2.0 | 3.0 | 0.00 | 0.00 | 0.00 | 24 | 1018.9 |
| 20260509050746 | 60 | 243 | 3.0 | 3.0 | 0.00 | 0.00 | 0.00 | 24 | 1018.9 |
| 20260509050243 | 60 | 254 | 3.0 | 3.0 | 0.00 | 0.00 | 0.00 | 24 | 1019.0 |
| 20260509045740 | 61 | 254 | 2.0 | 2.0 | 0.00 | 0.00 | 0.00 | 24 | 1019.0 |
| 20260509045237 | 61 | 241 | 3.0 | 3.0 | 0.00 | 0.00 | 0.00 | 23 | 1019.2 |
| 20260509044734 | 60 | 256 | 3.0 | 3.0 | 0.00 | 0.00 | 0.00 | 23 | 1019.2 |
| 20260509044232 | 60 | 253 | 2.0 | 3.0 | 0.00 | 0.00 | 0.00 | 23 | 1019.0 |
| 20260509043728 | 60 | 259 | 3.0 | 5.0 | 0.00 | 0.00 | 0.00 | 23 | 1019.0 |
| 20260509043224 | 61 | 231 | 2.0 | 3.0 | 0.00 | 0.00 | 0.00 | 23 | 1019.0 |
| 20260509042721 | 60 | 246 | 3.0 | 3.0 | 0.00 | 0.00 | 0.00 | 23 | 1019.0 |
| 20260509042217 | 61 | 252 | 2.0 | 3.0 | 0.00 | 0.00 | 0.00 | 22 | 1019.0 |
| 20260509041714 | 60 | 237 | 4.0 | 5.0 | 0.00 | 0.00 | 0.00 | 22 | 1018.9 |
| 20260509041211 | 60 | 234 | 1.0 | 2.0 | 0.00 | 0.00 | 0.00 | 22 | 1018.9 |
| 20260509040709 | 61 | 246 | 2.0 | 2.0 | 0.00 | 0.00 | 0.00 | 22 | 1019.0 |
| 20260509040206 | 61 | 250 | 0.0 | 2.0 | 0.00 | 0.00 | 0.00 | 22 | 1019.0 |
| 20260509035702 | 61 | 240 | 3.0 | 3.0 | 0.00 | 0.00 | 0.00 | 22 | 1018.9 |
| 20260509035159 | 61 | 257 | 3.0 | 3.0 | 0.00 | 0.00 | 0.00 | 22 | 1018.9 |
| 20260509034657 | 61 | 231 | 2.0 | 2.0 | 0.00 | 0.00 | 0.00 | 22 | 1018.9 |
| 20260509034154 | 61 | 243 | 3.0 | 3.0 | 0.00 | 0.00 | 0.00 | 22 | 1018.8 |
| 20260509033651 | 61 | 236 | 2.0 | 2.0 | 0.00 | 0.00 | 0.00 | 22 | 1018.7 |
| 20260509033148 | 60 | 241 | 1.0 | 2.0 | 0.00 | 0.00 | 0.00 | 22 | 1018.8 |
| 20260509032645 | 60 | 247 | 2.0 | 2.0 | 0.00 | 0.00 | 0.00 | 22 | 1018.7 |
| 20260509032142 | 61 | 252 | 2.0 | 2.0 | 0.00 | 0.00 | 0.00 | 21 | 1018.5 |
| 20260509031639 | 61 | 251 | 2.0 | 3.0 | 0.00 | 0.00 | 0.00 | 21 | 1018.5 |
| 20260509031137 | 62 | 256 | 2.0 | 3.0 | 0.00 | 0.00 | 0.00 | 20 | 1018.4 |
| 20260509030635 | 62 | 237 | 2.0 | 3.0 | 0.00 | 0.00 | 0.00 | 20 | 1018.4 |
| 20260509030132 | 61 | 254 | 3.0 | 3.0 | 0.00 | 0.00 | 0.00 | 20 | 1018.4 |
| 20260509025628 | 61 | 247 | 2.0 | 2.0 | 0.00 | 0.00 | 0.00 | 20 | 1018.3 |
| 20260509025124 | 61 | 243 | 2.0 | 2.0 | 0.00 | 0.00 | 0.00 | 20 | 1018.3 |
| 20260509024619 | 61 | 240 | 1.0 | 3.0 | 0.00 | 0.00 | 0.00 | 20 | 1018.3 |
| 20260509024115 | 62 | 251 | 2.0 | 2.0 | 0.00 | 0.00 | 0.00 | 20 | 1018.3 |
| 20260509023614 | 62 | 244 | 1.0 | 2.0 | 0.00 | 0.00 | 0.00 | 19 | 1018.3 |
| 20260509023110 | 62 | 251 | 1.0 | 2.0 | 0.00 | 0.00 | 0.00 | 19 | 1018.2 |
| 20260509022606 | 63 | 255 | 1.0 | 2.0 | 0.00 | 0.00 | 0.00 | 19 | 1018.0 |
| 20260509022105 | 63 | 241 | 0.0 | 2.0 | 0.00 | 0.00 | 0.00 | 19 | 1018.0 |
| 20260509021601 | 63 | 229 | 2.0 | 2.0 | 0.00 | 0.00 | 0.00 | 19 | 1017.9 |
| 20260509021058 | 63 | 255 | 2.0 | 2.0 | 0.00 | 0.00 | 0.00 | 19 | 1018.2 |
| 20260509020557 | 64 | 250 | 1.0 | 2.0 | 0.00 | 0.00 | 0.00 | 19 | 1017.7 |
| 20260509020053 | 65 | 258 | 0.0 | 2.0 | 0.00 | 0.00 | 0.00 | 19 | 1017.9 |
| 20260509015552 | 65 | 266 | 2.0 | 2.0 | 0.00 | 0.00 | 0.00 | 18 | 1017.8 |
| 20260509015049 | 66 | 302 | 4.0 | 5.0 | 0.00 | 0.00 | 0.00 | 18 | 1017.8 |
| 20260509014546 | 67 | 286 | 2.0 | 2.0 | 0.00 | 0.00 | 0.00 | 18 | 1017.9 |
| 20260509014042 | 67 | 252 | 3.0 | 3.0 | 0.00 | 0.00 | 0.00 | 18 | 1017.5 |
| 20260509013539 | 67 | 258 | 3.0 | 3.0 | 0.00 | 0.00 | 0.00 | 18 | 1017.7 |
| 20260509013034 | 67 | 355 | 5.0 | 7.0 | 0.00 | 0.00 | 0.00 | 18 | 1017.5 |
| 20260509012532 | 68 | 247 | 2.0 | 2.0 | 0.00 | 0.00 | 0.00 | 18 | 1017.8 |
| 20260509012028 | 68 | 282 | 3.0 | 3.0 | 0.00 | 0.00 | 0.00 | 18 | 1017.4 |
| 20260509011526 | 69 | 265 | 3.0 | 3.0 | 0.00 | 0.00 | 0.00 | 17 | 1017.5 |
| 20260509011023 | 69 | 311 | 8.0 | 14.0 | 0.00 | 0.00 | 0.00 | 18 | 1017.7 |
| 20260509010521 | 69 | 270 | 8.0 | 14.0 | 0.00 | 0.00 | 0.00 | 17 | 1017.5 |
| 20260509010017 | 69 | 249 | 3.0 | 3.0 | 0.00 | 0.00 | 0.00 | 17 | 1017.3 |
| 20260509005515 | 69 | 275 | 9.0 | 14.0 | 0.00 | 0.00 | 0.00 | 17 | 1017.5 |
| 20260509005015 | 69 | 253 | 5.0 | 7.0 | 0.00 | 0.00 | 0.00 | 18 | 1017.3 |
| 20260509004513 | 70 | 245 | 5.0 | 7.0 | 0.00 | 0.00 | 0.00 | 17 | 1017.2 |
| 20260509004009 | 70 | 248 | 5.0 | 7.0 | 0.00 | 0.00 | 0.00 | 17 | 1017.3 |
| 20260509003508 | 71 | 317 | 3.0 | 5.0 | 0.00 | 0.00 | 0.00 | 17 | 1017.0 |
| 20260509003004 | 72 | 261 | 6.0 | 9.0 | 0.00 | 0.00 | 0.00 | 17 | 1017.3 |
| 20260509002503 | 70 | 202 | 4.0 | 7.0 | 0.00 | 0.00 | 0.00 | 17 | 1017.5 |
| 20260509001959 | 70 | 292 | 4.0 | 7.0 | 0.00 | 0.00 | 0.00 | 17 | 1017.2 |
| 20260509001456 | 71 | 272 | 9.0 | 10.0 | 0.00 | 0.00 | 0.00 | 17 | 1017.2 |
| 20260509000952 | 72 | 224 | 5.0 | 7.0 | 0.00 | 0.00 | 0.00 | 17 | 1017.3 |
| 20260509000451 | 73 | 251 | 4.0 | 9.0 | 0.00 | 0.00 | 0.00 | 17 | 1017.0 |
| 20260508235946 | 74 | 343 | 4.0 | 5.0 | 0.00 | 0.00 | 0.00 | 17 | 1017.0 |
| 20260508235444 | 74 | 283 | 7.0 | 14.0 | 0.00 | 0.00 | 0.00 | 16 | 1017.5 |
| 20260508234941 | 75 | 266 | 2.0 | 3.0 | 0.00 | 0.00 | 0.00 | 16 | 1017.3 |
| 20260508234437 | 75 | 217 | 6.0 | 9.0 | 0.00 | 0.00 | 0.00 | 16 | 1017.4 |
| 20260508233935 | 74 | 294 | 4.0 | 7.0 | 0.00 | 0.00 | 0.00 | 17 | 1017.3 |
| 20260508233435 | 74 | 243 | 9.0 | 14.0 | 0.00 | 0.00 | 0.00 | 16 | 1017.4 |
| 20260508232931 | 73 | 276 | 7.0 | 9.0 | 0.00 | 0.00 | 0.00 | 17 | 1017.0 |
| 20260508232428 | 74 | 239 | 3.0 | 3.0 | 0.00 | 0.00 | 0.00 | 16 | 1017.4 |
| 20260508231925 | 74 | 239 | 6.0 | 7.0 | 0.00 | 0.00 | 0.00 | 16 | 1017.0 |
| 20260508231422 | 74 | 203 | 4.0 | 5.0 | 0.00 | 0.00 | 0.00 | 16 | 1016.9 |
| 20260508230919 | 74 | 284 | 7.0 | 14.0 | 0.00 | 0.00 | 0.00 | 16 | 1017.3 |
| 20260508230415 | 75 | 262 | 3.0 | 3.0 | 0.00 | 0.00 | 0.00 | 16 | 1017.0 |
| 20260508225913 | 74 | 256 | 3.0 | 3.0 | 0.00 | 0.00 | 0.00 | 17 | 1017.0 |
| 20260508225409 | 75 | 320 | 10.0 | 12.0 | 0.00 | 0.00 | 0.00 | 16 | 1017.0 |
| 20260508224907 | 75 | 232 | 5.0 | 5.0 | 0.00 | 0.00 | 0.00 | 16 | 1017.0 |
| 20260508224404 | 75 | 279 | 7.0 | 9.0 | 0.00 | 0.00 | 0.00 | 16 | 1017.3 |
| 20260508223902 | 76 | 270 | 7.0 | 9.0 | 0.00 | 0.00 | 0.00 | 16 | 1017.3 |
| 20260508223400 | 76 | 232 | 5.0 | 7.0 | 0.00 | 0.00 | 0.00 | 16 | 1017.2 |
| 20260508222857 | 75 | 241 | 7.0 | 9.0 | 0.00 | 0.00 | 0.00 | 16 | 1016.9 |